TimeEDT,TemperatureF,Dew PointF,Humidity,Sea Level PressureIn,VisibilityMPH,Wind Direction,Wind SpeedMPH,Gust SpeedMPH,PrecipitationIn,Events,Conditions,WindDirDegrees,DateUTC
12:04 AM,64.4,62.6,94,29.90,1.2,Calm,Calm,-,N/A,,Clear,0,2013-09-11 04:04:00
12:07 AM,64.4,62.6,94,29.90,0.8,Calm,Calm,-,N/A,,Mist,0,2013-09-11 04:07:00
12:43 AM,62.6,62.6,100,29.90,1.0,SW,3.5,-,N/A,,Clear,230,2013-09-11 04:43:00
12:46 AM,62.6,62.6,100,29.90,2.5,SW,4.6,-,N/A,,Clear,230,2013-09-11 04:46:00
12:53 AM,66.0,64.9,96,29.90,7.0,SW,6.9,-,N/A,,Clear,230,2013-09-11 04:53:00
1:53 AM,75.9,71.1,85,29.89,9.0,SW,11.5,-,N/A,,Clear,220,2013-09-11 05:53:00
2:53 AM,75.9,69.1,79,29.90,10.0,SW,10.4,-,N/A,,Clear,220,2013-09-11 06:53:00
3:53 AM,75.9,69.1,79,29.91,10.0,SW,10.4,-,N/A,,Clear,220,2013-09-11 07:53:00
4:53 AM,75.0,68.0,79,29.92,10.0,SW,9.2,-,N/A,,Clear,220,2013-09-11 08:53:00
5:53 AM,75.0,68.0,79,29.93,10.0,SW,11.5,20.7,N/A,,Clear,230,2013-09-11 09:53:00
6:53 AM,73.9,68.0,82,29.96,9.0,SW,10.4,-,N/A,,Clear,220,2013-09-11 10:53:00
7:53 AM,75.9,69.1,79,29.96,9.0,SW,12.7,-,N/A,,Clear,220,2013-09-11 11:53:00
8:53 AM,77.0,70.0,79,29.96,9.0,SW,11.5,-,N/A,,Clear,230,2013-09-11 12:53:00
9:53 AM,80.1,72.0,76,29.95,8.0,SW,17.3,23.0,N/A,,Clear,220,2013-09-11 13:53:00
10:53 AM,82.9,73.0,72,29.93,9.0,WSW,13.8,19.6,N/A,,Partly Cloudy,240,2013-09-11 14:53:00
11:53 AM,84.9,71.1,63,29.93,10.0,SW,15.0,21.9,N/A,,Partly Cloudy,230,2013-09-11 15:53:00
12:53 PM,87.1,72.0,61,29.91,10.0,SW,11.5,19.6,N/A,,Partly Cloudy,220,2013-09-11 16:53:00
1:53 PM,87.1,70.0,57,29.91,10.0,West,13.8,24.2,N/A,,Clear,260,2013-09-11 17:53:00
2:53 PM,88.0,72.0,59,29.89,10.0,WSW,9.2,-,N/A,,Clear,250,2013-09-11 18:53:00
3:53 PM,87.1,72.0,61,29.87,10.0,WSW,16.1,23.0,N/A,,Clear,240,2013-09-11 19:53:00
4:04 PM,87.8,71.6,58,29.87,10.0,WSW,10.4,20.7,N/A,Thunderstorm,Partly Cloudy,250,2013-09-11 20:04:00
4:53 PM,77.0,68.0,74,29.89,10.0,North,6.9,-,N/A,Thunderstorm,Mostly Cloudy,350,2013-09-11 20:53:00
5:43 PM,73.4,69.8,88,29.90,10.0,WNW,3.5,-,0.02,,Scattered Clouds,300,2013-09-11 21:43:00
5:53 PM,73.9,69.1,85,29.89,10.0,WNW,3.5,-,0.02,,Scattered Clouds,290,2013-09-11 21:53:00
6:48 PM,71.6,68.0,88,29.88,10.0,SSW,3.5,-,N/A,Thunderstorm,Scattered Clouds,200,2013-09-11 22:48:00
6:53 PM,72.0,69.1,91,29.88,10.0,Calm,Calm,-,N/A,Thunderstorm,Scattered Clouds,0,2013-09-11 22:53:00
7:22 PM,71.6,69.8,94,29.91,1.8,Variable,6.9,-,0.16,Rain-Thunderstorm,Heavy Rain,0,2013-09-11 23:22:00
7:30 PM,71.6,69.8,94,29.90,1.0,Variable,3.5,-,0.29,Rain-Thunderstorm,Heavy Thunderstorms and Rain,0,2013-09-11 23:30:00
7:33 PM,71.6,69.8,94,29.90,1.5,Variable,3.5,-,0.29,Rain-Thunderstorm,Thunderstorms and Rain,0,2013-09-11 23:33:00
7:37 PM,71.6,71.6,100,29.92,3.0,Calm,Calm,-,0.29,Rain-Thunderstorm,Light Thunderstorms and Rain,0,2013-09-11 23:37:00
7:53 PM,72.0,70.0,93,29.92,6.0,Calm,Calm,-,0.29,Rain-Thunderstorm,Light Thunderstorms and Rain,0,2013-09-11 23:53:00
8:45 PM,71.6,69.8,94,29.92,6.0,ESE,3.5,-,0.06,,Mostly Cloudy,110,2013-09-12 00:45:00
8:53 PM,71.1,70.0,96,29.92,6.0,SSE,3.5,-,0.06,,Mostly Cloudy,150,2013-09-12 00:53:00
9:12 PM,71.6,69.8,94,29.90,7.0,NNE,3.5,-,N/A,Thunderstorm,Overcast,30,2013-09-12 01:12:00
9:31 PM,71.6,69.8,94,29.90,4.0,Calm,Calm,-,0.00,Rain,Light Rain,0,2013-09-12 01:31:00
9:43 PM,71.6,69.8,94,29.89,5.0,SSE,5.8,-,0.00,Rain-Thunderstorm,Light Rain,160,2013-09-12 01:43:00
9:53 PM,71.1,69.1,93,29.91,7.0,South,5.8,-,0.00,Thunderstorm,Overcast,170,2013-09-12 01:53:00
10:16 PM,69.8,68.0,94,29.91,10.0,Calm,Calm,-,N/A,Thunderstorm,Overcast,0,2013-09-12 02:16:00
10:29 PM,69.8,68.0,94,29.89,10.0,Calm,Calm,-,N/A,Thunderstorm,Mostly Cloudy,0,2013-09-12 02:29:00
10:33 PM,69.8,68.0,94,29.89,10.0,Calm,Calm,-,N/A,,Mostly Cloudy,0,2013-09-12 02:33:00
10:53 PM,70.0,68.0,93,29.91,5.0,South,9.2,-,0.04,Rain-Thunderstorm,Light Rain,180,2013-09-12 02:53:00
10:57 PM,69.8,68.0,94,29.91,1.8,SSE,9.2,-,0.16,Rain-Thunderstorm,Heavy Rain,160,2013-09-12 02:57:00
11:04 PM,69.8,68.0,94,29.91,2.0,SSE,4.6,-,0.17,Rain-Thunderstorm,Light Thunderstorms and Rain,160,2013-09-12 03:04:00
11:11 PM,69.8,66.2,88,29.90,10.0,SE,5.8,-,0.17,Rain-Thunderstorm,Light Thunderstorms and Rain,140,2013-09-12 03:11:00
11:22 PM,69.8,68.0,94,29.90,1.8,South,4.6,-,0.33,Rain-Thunderstorm,Heavy Rain,170,2013-09-12 03:22:00
11:30 PM,69.8,68.0,94,29.90,2.5,NNW,3.5,-,0.36,Rain-Thunderstorm,Light Thunderstorms and Rain,330,2013-09-12 03:30:00
11:37 PM,69.8,68.0,94,29.90,4.0,Calm,Calm,-,0.39,Rain-Thunderstorm,Light Thunderstorms and Rain,0,2013-09-12 03:37:00
11:53 PM,69.1,68.0,96,29.89,10.0,Calm,Calm,-,0.39,Rain-Thunderstorm,Light Rain,0,2013-09-12 03:53:00